Location: Unspecified
(49.2170°N, 0.0000°E)
Time: 06:09:07
(UTC+00:00)

A-11 Canister half - Pass Details

Date: 16 June 2019
Orbit: 1526 x 1683 km, 47.3° (Epoch: 15 July)

Event Time Altitude Azimuth Distance (km) Brightness Sun altitude
Rises 11:06:47 0° 284° (WNW) 4,680 11.4 62.0°
Reaches altitude 10° 11:09:52 10° 281° (W) 3,697 11.0 62.3°
Maximum altitude 11:18:55 59° 205° (SSW) 1,734 10.9 62.9°
Drops below altitude 10° 11:28:07 10° 129° (SE) 3,754 11.5 63.3°
Sets 11:31:16 0° 126° (SE) 4,756 11.9 63.5°
